Location: Middle Street
(51.7167°N, 0.0333°E)
Time: 02:01:28
(UTC+00:00)

FengYun 1-2 T - Pass Details

Date: 20 January 2021
Orbit: 847 x 881 km, 98.7° (Epoch: 28 February)

Event Time Altitude Azimuth Distance (km) Brightness Sun altitude
Rises 16:55:17 0° 148° (SSE) 3,426 7.3 -4.5°
Reaches altitude 10° 16:57:41 10° 144° (SE) 2,499 6.6 -4.9°
Maximum altitude 17:03:06 57° 68° (ENE) 1,022 4.4 -5.6°
Drops below altitude 10° 17:08:36 10° 351° (N) 2,537 6.5 -6.4°
Sets 17:11:03 0° 348° (NNW) 3,483 7.3 -6.7°
